Home > Weather > Rockhampton > Past weeks

Flag for Australia Past Weather in Rockhampton, Queensland, Australia — Yesterday and Last 2 Weeks

Now
61 °F

Clear.


Feels Like: 61 °F
Forecast: 58 / 79 °F
Wind: 6 mph from Southeast

Location: Rockhampton Airport

Current Time: May 31, 2016 at 2:35:01 AM

Latest Report: May 31, 2016 at 2:00 AM


Visibility: N/A

Pressure: 30.15 "Hg

Humidity: 77%

Dew Point: 54 °F

Location of RockhamptonLocation

Past Weather in Rockhampton — Graph

°F

Rockhampton Temperature Yesterday

Maximum temperature yesterday: 81 °F (at 2:00 PM)
Minimum temperature yesterday: 52 °F (at 3:30 AM)
Average temperature yesterday: 64 °F

High & Low Weather Summary for the Past Weeks

 TemperatureHumidityPressure
High93 °F (May 27, 1:00 PM)100% (May 18, 5:00 AM)30.18 "Hg (May 18, 5:00 AM)
Low52 °F (May 30, 3:30 AM)17% (May 29, 2:00 PM)29.74 "Hg (May 27, 1:30 PM)
Average72 °F66%30.03 "Hg
* Reported May 16 1:00 AM — May 31 1:00 AM, Rockhampton, Weather by CustomWeather, © 2016

Note: Actual official high and low records may vary slightly from our data, if they occured in-between our weather recording intervals... More about our weather records

Advertising

Rockhampton Weather History for the Previous 24 Hours

Scroll right to see more
 ConditionsComfort  
Time TempWeatherWind HumidityBarometerVisibility
1:00 AM
Tue, May 31
61 °FClear.7 mph77%30.18 "HgN/A
12:30 AM61 °FClear.6 mph77%30.18 "HgN/A
12:00 AM61 °FClear.6 mph83%30.18 "HgN/A
11:00 PM
Mon, May 30
63 °FClear.8 mph73%30.18 "HgN/A
10:30 PM64 °FClear.6 mph68%30.18 "HgN/A
10:00 PM64 °FClear.8 mph73%30.18 "HgN/A
9:00 PM64 °FClear.6 mph73%30.18 "HgN/A
8:00 PM64 °FClear.3 mph78%30.18 "HgN/A
7:00 PM68 °FClear.8 mph64%30.15 "HgN/A
6:00 PM70 °FClear.6 mph60%30.12 "HgN/A
5:30 PM72 °FClear.7 mph57%30.12 "HgN/A
5:00 PM73 °FClear.7 mph50%30.09 "Hg10 mi
4:30 PM75 °FClear.8 mph47%30.09 "Hg10 mi
4:00 PM77 °FSunny.7 mph42%30.09 "Hg10 mi
3:00 PM79 °FSunny.1 mph26%30.09 "Hg10 mi
2:00 PM81 °FPassing clouds.6 mph26%30.09 "HgN/A
1:30 PM79 °FPassing clouds.7 mph30%30.09 "HgN/A
1:00 PM79 °FSunny.3 mph34%30.09 "Hg10 mi
12:30 PM77 °FPassing clouds.6 mph36%30.12 "HgN/A
12:00 PM77 °FPassing clouds.6 mph39%30.15 "HgN/A
11:30 AM75 °FSunny.8 mph41%30.15 "Hg10 mi
11:00 AM73 °FSunny.9 mph44%30.18 "Hg10 mi
10:30 AM73 °FPassing clouds.10 mph38%30.18 "HgN/A
10:00 AM70 °FSunny.9 mph40%30.18 "Hg10 mi
9:30 AM70 °FSunny.9 mph38%30.18 "Hg10 mi
9:00 AM68 °FSunny.9 mph40%30.18 "Hg10 mi
8:00 AM59 °FSunny.5 mph68%30.18 "Hg10 mi
7:30 AM55 °FSunny.6 mph72%30.15 "Hg10 mi
7:00 AM52 °FSunny.7 mph77%30.15 "HgN/A
6:30 AM52 °FSunny.7 mph77%30.15 "HgN/A
6:00 AM52 °FSunny.7 mph77%30.12 "HgN/A
5:30 AM52 °FClear.5 mph82%30.12 "HgN/A
5:00 AM52 °FClear.5 mph82%30.12 "HgN/A
4:30 AM52 °FClear.5 mph82%30.12 "HgN/A
4:00 AM52 °FClear.3 mph82%30.12 "HgN/A
3:30 AM52 °FClear.5 mph82%30.09 "HgN/A
3:00 AM54 °FClear.3 mph72%30.09 "HgN/A
2:30 AM54 °FClear.5 mph72%30.09 "HgN/A
2:00 AM55 °FClear.5 mph72%30.09 "HgN/A
Weather by CustomWeather, © 2016

See weather overviewHow to use our weather pages